Find Starlink 33611

NORAD ID: 63279 Int'l Des: 2025-053 Owner: SPXS Country: US Constellation: starlink operational
LEOCIRCULAR

当前视图

正在加载3D地球...

About Starlink 33611

Starlink 33611 (NORAD 63279) is a starlink constellation satellite (v2 mini) launched Mar 15, 2025 by SPXS of US. It operates in LEO, CIRCULAR orbit with a mass of 575.00 kg.

关于 Starlink 33611

正在加载描述...

即将过境

Passes for default location (London). Set your location on the main map for personalized predictions.

高度历史

Loading altitude history...

两行轨道根数

1 63279U 25053Q 26191.27696375 .00014273 00000-0 52696-3 0 9994
2 63279 42.9979 265.8263 0001476 246.7869 113.2827 15.27593388 75097
Epoch: Jul 10, 2026 • Age: 11 hours

当前状态

高度 482.6 km
远地点 / 近地点 N/A
速度 7.63 km/s
星下点 11.08°N, 81.08°E
发射日期 Mar 15, 2025
运行时间 1.3 years
类型 internet

技术详情

分类 Payload
质量 575.00 kg
干质量 530.00 kg
总质量 575.00 kg
长度 0.30 m
直径 4.10 m
跨度 29.00 m
形状 Box + pan
制造商 SPXS
平台类型 Starlink V2MO
阶段状态 In Orbit
所有者/国家 SPXS/US

Most Searched